Showing default

WEINA 1B, 43279

Orbit data source: Space-Track

WEINA 1B, 43279 is a payload satellite owned by Weina (CN) in LEO that was launched on Tue, 10 Apr 2018 UTC via a CHANG ZHENG 4C launch vehicle from the Jiuquan Satellite Launch Center, China (JSC). Payload-class satellites include a variety of spacecraft equipped with specific instruments for various scientific and technological missions. These include communications satellites like Starlink; space stations such as the ISS; scientific satellites like the Hubble; Earth observation satellites from companies like Planet Labs, Umbra, and HawkEye 360; GPS; miniature CubeSats for education and research; and military/defense satellites.

Loading next visibility...
Identifier
43279, 2018-034E
Orbit
LEO
Country
Flag of CNCN / PRC
Related business
Manufacturer
SECM?
Mission
Operational Defense Technology
Bus & Motor
Unknown
Mass
~10 kg wet, ~10 kg dry
Launch date (UTC)
2018-04-10 (8 years ago)
Launch vehicle
CHANG ZHENG 4C
Launch site
Jiuquan Satellite Launch Center, China (JSC)
Object type
Payload
Rocket body
Debris
Shape & HBR
Box, 0.1 m
Radar Cross Section
0.035 m², Medium (>0.1 m² and < 1m²)

Expand to show TLE details & history
Last TLE update: 5 hours ago

TLE from 5 hours ago
0 WEINA 1B
1 43279U 18034E   25308.60357123 -.00000017  00000-0  10138-3 0  9991
2 43279  63.3963 309.5646 0255098   7.1595 353.2965 13.45345704371994
Epoch: 2025-11-04T14:29Z
TLE epoch observation values (Epoch: 2025-11-04T14:29:08.554Z)
Latitude
0.00004°
Longitude
48.19076°
Altitude
902.055 km
Speed
7.495 km/s
True Right ascension
20h 38m 15s
True Declination
0° 00' 00"
Sunlit
Object was in daylight at epoch
Visualization orbit readout
Latitude
Unknown
Longitude
Unknown
Altitude
Unknown
Speed
Unknown
Apparent Right ascension
Unknown
Apparent Declination
Unknown
Sunlit
N/A
Visualization observer readout
Local Sidereal Time
15:42:15
Azimuth
Unknown
Elevation
Unknown
Doppler factor
Unknown
Orbital elements
Apogee altitude
1,278.727 km
Perigee altitude
897.794 km
Semi-major axis
7,466.398 km
Eccentricity
0.02551
Inclination
63.3963°
RAAN
309.5646°
Arg. of periapsis
7.1595°
True anomaly
352.94413°
Mean anomaly
353.2965°
Eccentric anomaly
353.12145°
Mean motion
3.36416 °/min
Orbital period
107.01 mins
BSTAR
0.00010138
Loading maneuver chart data...
Computing Atmospheric mass density...
Loading historical data...
Loading historical data...
Loading historical data...
Loading historical data...
Loading historical data...
Loading historical data...
Loading historical data...

Documentation

Showing up to 5 results
|